Albion, NE

6:05 PM CDT on October 17, 2017 (GMT -0500)
Albion Municipal

Weather History for KBVN - June, 2014

Change the Weather History Date:

Saturday, June 21, 2014

  Actual Average (KOFK) Record (KOFK)
Temperature  
Mean Temperature 72 °F -  
Max Temperature 82 °F 84 °F 106 °F (1988)
Min Temperature 62 °F 59 °F 36 °F (1902)
Cooling Degree Days 7    
Growing Degree Days 22 (Base 50)    
Moisture  
Dew Point 63 °F    
Average Humidity 72    
Maximum Humidity 94    
Minimum Humidity 50    
Precipitation  
Precipitation 0.05 in - - ()
Sea Level Pressure  
Sea Level Pressure 29.90 in    
Wind  
Wind Speed 10 mph (SSE)    
Max Wind Speed 24 mph    
Max Gust Speed 31 mph    
Visibility 10 miles    
Events Rain , Thunderstorm    
Averages and records for this station are not official NWS values.
T = Trace of Precipitation, MM = Missing Value Source: NWS Daily Summary

Daily Weather History Graph

Daily Weather History Graph

Search for Another Location

Airport or City:

Trip Planner

Search our weather history database for the weather conditions in past years. The results will help you decide how hot, cold, wet, or windy it might be!

Date:

Astronomy

Jun. 21, 2014 Rise Set
Actual Time 5:57 AM CDT 9:10 PM CDT
Civil Twilight 5:23 AM CDT 9:44 PM CDT
Nautical Twilight 4:39 AM CDT 10:28 PM CDT
Astronomical Twilight 3:46 AM CDT 11:21 PM CDT
Moon 2:15 AM CDT (6/21) 3:47 PM CDT (6/21)
Length of Visible Light 16h 21m
Length of Day
15h 12m
Waning Crescent, 30% of the Moon is Illuminated
Jun 21
Waning Crescent
Jun 27
New
Jul 5
First Quarter
Jul 12
Full
Jul 18
Last Quarter

Hourly Weather History & Observations

Time (CDT) Temp. Heat Index Dew Point Humidity Pressure Visibility Wind Dir Wind Speed Gust Speed Precip Events Conditions
12:15 AM 64.6 °F - 61.7 °F 90% 29.97 in 10.0 mi SE 16.1 mph 25.3 mph 0.01 in Rain Light Rain
12:35 AM 62.8 °F - 60.3 °F 91% 29.96 in 10.0 mi ESE 24.2 mph 31.1 mph 0.03 in Rain Light Rain
12:55 AM 62.8 °F - 61.2 °F 94% 29.98 in 10.0 mi SE 15.0 mph 27.6 mph 0.03 in Rain Light Rain
1:15 AM 63.5 °F - 61.7 °F 94% 29.95 in 10.0 mi SE 12.7 mph - 0.01 in Rain Light Rain
1:35 AM 63.5 °F - 61.7 °F 94% 29.94 in 10.0 mi SSE 13.8 mph 21.9 mph 0.01 in   Scattered Clouds
1:55 AM 63.7 °F - 61.9 °F 94% 29.93 in 10.0 mi SE 5.8 mph - 0.01 in   Clear
2:35 AM 63.9 °F - 61.9 °F 93% 29.92 in 10.0 mi ESE 3.5 mph - N/A   Mostly Cloudy
2:55 AM 64.0 °F - 61.9 °F 93% 29.96 in 10.0 mi South 4.6 mph - N/A Thunderstorm Thunderstorm
3:35 AM 64.2 °F - 61.9 °F 92% 29.99 in 10.0 mi SSE 11.5 mph - N/A Rain , Thunderstorm Light Thunderstorms and Rain
3:55 AM 64.0 °F - 61.9 °F 93% 29.99 in 10.0 mi SSE 8.1 mph - 0.01 in Rain Light Rain
4:15 AM 64.0 °F - 61.2 °F 90% 29.96 in 10.0 mi South 17.3 mph 20.7 mph N/A Rain Light Rain
4:35 AM 63.9 °F - 60.4 °F 89% 29.95 in 10.0 mi SE 15.0 mph 20.7 mph N/A   Scattered Clouds
5:15 AM 63.9 °F - 59.4 °F 85% 29.96 in 10.0 mi SSE 5.8 mph - N/A   Clear
5:35 AM 64.6 °F - 58.6 °F 81% 29.95 in 10.0 mi SSE 12.7 mph 17.3 mph N/A   Clear
5:55 AM 63.7 °F - 59.0 °F 85% 29.94 in 10.0 mi SSE 6.9 mph - N/A   Clear
6:15 AM 63.5 °F - 59.0 °F 85% 29.94 in 10.0 mi South 3.5 mph - N/A   Clear
6:35 AM 63.7 °F - 59.0 °F 85% 29.95 in 10.0 mi South 3.5 mph - N/A   Scattered Clouds
6:55 AM 64.0 °F - 59.4 °F 85% 29.94 in 10.0 mi Calm Calm - N/A   Mostly Cloudy
7:15 AM 64.8 °F - 59.4 °F 83% 29.94 in 10.0 mi Calm Calm - N/A   Mostly Cloudy
7:35 AM 65.3 °F - 59.9 °F 83% 29.94 in 10.0 mi Calm Calm - N/A   Mostly Cloudy
7:55 AM 66.2 °F - 59.9 °F 80% 29.93 in 10.0 mi South 3.5 mph - N/A   Scattered Clouds
8:15 AM 66.9 °F - 60.1 °F 79% 29.93 in 10.0 mi South 5.8 mph - N/A   Clear
8:35 AM 68.0 °F - 60.8 °F 78% 29.93 in 10.0 mi SSW 6.9 mph - N/A   Clear
8:55 AM 69.4 °F - 61.5 °F 76% 29.94 in 10.0 mi SW 5.8 mph - N/A   Clear
9:15 AM 70.3 °F - 62.1 °F 75% 29.93 in 10.0 mi WSW 3.5 mph - N/A   Clear
9:35 AM 72.5 °F - 62.2 °F 70% 29.93 in 10.0 mi SW 4.6 mph - N/A   Clear
9:55 AM 74.3 °F - 63.1 °F 68% 29.93 in 10.0 mi SW 4.6 mph - N/A   Clear
10:15 AM 75.7 °F - 63.9 °F 66% 29.92 in 10.0 mi SSW 6.9 mph - N/A   Clear
10:35 AM 77.0 °F - 63.3 °F 63% 29.92 in 10.0 mi SW 10.4 mph - N/A   Clear
10:55 AM 77.9 °F - 64.0 °F 62% 29.92 in 10.0 mi SSW 9.2 mph - N/A   Clear
11:15 AM 78.6 °F - 63.3 °F 59% 29.93 in 10.0 mi SSW 13.8 mph - N/A   Clear
11:35 AM 77.9 °F - 62.1 °F 58% 29.93 in 10.0 mi SSW 13.8 mph 17.3 mph N/A   Clear
11:55 AM 78.1 °F - 62.8 °F 59% 29.93 in 10.0 mi SSW 10.4 mph - N/A   Clear
12:15 PM 79.2 °F - 63.1 °F 58% 29.92 in 10.0 mi South 8.1 mph - N/A   Clear
12:35 PM 79.3 °F - 63.0 °F 57% 29.92 in 10.0 mi South 9.2 mph - N/A   Clear
12:55 PM 79.7 °F - 63.7 °F 58% 29.92 in 10.0 mi South 6.9 mph - N/A   Clear
1:15 PM 79.5 °F - 63.3 °F 58% 29.92 in 10.0 mi South 5.8 mph - N/A   Clear
1:35 PM 80.4 °F 81.7 °F 63.1 °F 55% 29.91 in 10.0 mi SSE 5.8 mph - N/A   Clear
1:55 PM 81.1 °F 82.7 °F 64.0 °F 56% 29.91 in 10.0 mi South 6.9 mph - N/A   Clear
2:15 PM 80.6 °F 82.2 °F 64.2 °F 57% 29.91 in 10.0 mi SSE 10.4 mph - N/A   Clear
2:35 PM 81.0 °F 83.0 °F 65.7 °F 60% 29.90 in 10.0 mi ESE 11.5 mph - N/A   Clear
2:55 PM 81.1 °F 82.9 °F 65.3 °F 58% 29.89 in 10.0 mi SE 9.2 mph - N/A   Scattered Clouds
3:15 PM 80.1 °F 81.8 °F 64.6 °F 59% 29.89 in 10.0 mi SE 9.2 mph - N/A   Scattered Clouds
3:35 PM 79.2 °F - 64.4 °F 60% 29.89 in 10.0 mi SSE 9.2 mph - N/A   Scattered Clouds
3:55 PM 80.4 °F 82.3 °F 65.5 °F 60% 29.89 in 10.0 mi SE 11.5 mph - N/A   Clear
4:15 PM 79.5 °F - 64.9 °F 61% 29.89 in 10.0 mi South 11.5 mph 16.1 mph N/A   Clear
4:35 PM 78.8 °F - 64.9 °F 62% 29.89 in 10.0 mi SE 10.4 mph - N/A   Clear
4:55 PM 81.0 °F 82.9 °F 65.3 °F 59% 29.88 in 10.0 mi SSE 11.5 mph - N/A   Clear
5:15 PM 81.0 °F 83.0 °F 66.0 °F 60% 29.87 in 10.0 mi SSE 12.7 mph - N/A   Clear
5:35 PM 82.4 °F 84.2 °F 65.3 °F 56% 29.86 in 10.0 mi South 11.5 mph 17.3 mph N/A   Clear
5:55 PM 81.9 °F 83.5 °F 64.8 °F 56% 29.86 in 10.0 mi SSE 10.4 mph - N/A   Clear
6:15 PM 81.9 °F 83.7 °F 65.5 °F 57% 29.85 in 10.0 mi South 11.5 mph - N/A   Clear
6:35 PM 82.0 °F 82.8 °F 61.9 °F 50% 29.85 in 10.0 mi South 10.4 mph - N/A   Clear
6:55 PM 81.9 °F 83.1 °F 63.3 °F 53% 29.83 in 10.0 mi SSE 9.2 mph - N/A   Clear
7:15 PM 81.9 °F 83.4 °F 64.0 °F 55% 29.83 in 10.0 mi SSE 9.2 mph - N/A   Clear
7:35 PM 80.8 °F 82.1 °F 63.3 °F 55% 29.82 in 10.0 mi SSE 11.5 mph - N/A   Clear
7:55 PM 80.4 °F 81.8 °F 63.3 °F 56% 29.82 in 10.0 mi SSE 8.1 mph - N/A   Clear
8:15 PM 78.8 °F - 64.8 °F 62% 29.83 in 10.0 mi SSE 5.8 mph - N/A   Clear
8:35 PM 77.0 °F - 65.5 °F 67% 29.83 in 10.0 mi SSE 3.5 mph - N/A   Clear
8:55 PM 75.4 °F - 65.3 °F 71% 29.84 in 10.0 mi SSE 3.5 mph - N/A   Clear
9:15 PM 73.4 °F - 65.7 °F 77% 29.83 in 10.0 mi South 4.6 mph - N/A   Clear
9:35 PM 73.4 °F - 65.1 °F 75% 29.84 in 10.0 mi Calm Calm - N/A   Clear
9:55 PM 72.5 °F - 65.1 °F 78% 29.86 in 10.0 mi ENE 5.8 mph - N/A   Clear
10:15 PM 72.3 °F - 66.6 °F 82% 29.86 in 10.0 mi East 6.9 mph - N/A   Clear
10:35 PM 72.5 °F - 67.5 °F 84% 29.86 in 10.0 mi ESE 4.6 mph - N/A   Clear
10:55 PM 72.1 °F - 67.1 °F 84% 29.86 in 10.0 mi ESE 5.8 mph - N/A   Clear
11:15 PM 72.7 °F - 66.7 °F 82% 29.85 in 10.0 mi East 5.8 mph - N/A   Clear
11:35 PM 72.9 °F - 67.1 °F 82% 29.84 in 10.0 mi ESE 6.9 mph - N/A   Clear
11:55 PM 72.5 °F - 68.0 °F 86% 29.85 in 10.0 mi ESE 4.6 mph - N/A   Clear